Year,Month,Day,Hour,Minute,Value (Times are PST for temperature in C)
2017,08,04,00,00,20.70
2017,08,04,00,01,20.70
2017,08,04,00,02,20.70
2017,08,04,00,03,20.70
2017,08,04,00,04,20.70
2017,08,04,00,05,20.60
2017,08,04,00,06,20.60
2017,08,04,00,07,20.60
2017,08,04,00,08,20.60
2017,08,04,00,09,20.60
2017,08,04,00,10,20.60
2017,08,04,00,11,20.60
2017,08,04,00,12,20.60
2017,08,04,00,13,20.50
2017,08,04,00,14,20.50
2017,08,04,00,15,20.50
2017,08,04,00,16,20.50
2017,08,04,00,17,20.50
2017,08,04,00,18,20.50
2017,08,04,00,19,20.40
2017,08,04,00,20,20.40
2017,08,04,00,21,20.40
2017,08,04,00,22,20.40
2017,08,04,00,23,20.40
2017,08,04,00,24,20.40
2017,08,04,00,25,20.30
2017,08,04,00,26,20.30
2017,08,04,00,27,20.30
2017,08,04,00,28,20.30
2017,08,04,00,29,20.20
2017,08,04,00,30,20.20
2017,08,04,00,31,20.20
2017,08,04,00,32,20.20
2017,08,04,00,33,20.20
2017,08,04,00,34,20.10
2017,08,04,00,35,20.10
2017,08,04,00,36,20.10
2017,08,04,00,37,20.00
2017,08,04,00,38,19.90
2017,08,04,00,39,19.90
2017,08,04,00,40,19.90
2017,08,04,00,41,19.90
2017,08,04,00,42,19.90
2017,08,04,00,43,19.80
2017,08,04,00,44,19.80
2017,08,04,00,45,19.80
2017,08,04,00,46,19.70
2017,08,04,00,47,19.70
2017,08,04,00,48,19.70
2017,08,04,00,49,19.60
2017,08,04,00,50,19.60
2017,08,04,00,51,19.50
2017,08,04,00,52,19.50
2017,08,04,00,53,19.50
2017,08,04,00,54,19.40
2017,08,04,00,55,19.40
2017,08,04,00,56,19.30
2017,08,04,00,57,19.30
2017,08,04,00,58,19.20
2017,08,04,00,59,19.10
2017,08,04,01,00,19.10
2017,08,04,01,01,19.10
2017,08,04,01,02,19.00
2017,08,04,01,03,18.90
2017,08,04,01,04,18.90
2017,08,04,01,05,18.90
2017,08,04,01,06,18.90
2017,08,04,01,07,18.80
2017,08,04,01,08,18.80
2017,08,04,01,09,18.70
2017,08,04,01,10,18.70
2017,08,04,01,11,18.70
2017,08,04,01,12,18.60
2017,08,04,01,13,18.60
2017,08,04,01,14,18.60
2017,08,04,01,15,18.50
2017,08,04,01,16,18.50
2017,08,04,01,17,18.40
2017,08,04,01,18,18.40
2017,08,04,01,19,18.40
2017,08,04,01,20,18.30
2017,08,04,01,21,18.30
2017,08,04,01,22,18.30
2017,08,04,01,23,18.20
2017,08,04,01,24,18.20
2017,08,04,01,25,18.20
2017,08,04,01,26,18.20
2017,08,04,01,27,18.20
2017,08,04,01,28,18.20
2017,08,04,01,29,18.20
2017,08,04,01,30,18.20
2017,08,04,01,31,18.20
2017,08,04,01,32,18.20
2017,08,04,01,33,18.20
2017,08,04,01,34,18.10
2017,08,04,01,35,18.10
2017,08,04,01,36,18.10
2017,08,04,01,37,18.10
2017,08,04,01,38,18.10
2017,08,04,01,39,18.10
2017,08,04,01,40,18.10
2017,08,04,01,41,18.00
2017,08,04,01,42,17.90
2017,08,04,01,43,17.90
2017,08,04,01,44,17.90
2017,08,04,01,45,17.90
2017,08,04,01,46,17.90
2017,08,04,01,47,17.90
2017,08,04,01,48,17.90
2017,08,04,01,49,17.90
2017,08,04,01,50,17.90
2017,08,04,01,51,17.90
2017,08,04,01,52,17.80
2017,08,04,01,53,17.80
2017,08,04,01,54,17.80
2017,08,04,01,55,17.80
2017,08,04,01,56,17.80
2017,08,04,01,57,17.70
2017,08,04,01,58,17.70
2017,08,04,01,59,17.70
2017,08,04,02,00,17.70
2017,08,04,02,01,17.70
2017,08,04,02,02,17.60
2017,08,04,02,03,17.60
2017,08,04,02,04,17.60
2017,08,04,02,05,17.60
2017,08,04,02,06,17.50
2017,08,04,02,07,17.50
2017,08,04,02,08,17.50
2017,08,04,02,09,17.50
2017,08,04,02,10,17.50
2017,08,04,02,11,17.50
2017,08,04,02,12,17.40
2017,08,04,02,13,17.40
2017,08,04,02,14,17.40
2017,08,04,02,15,17.40
2017,08,04,02,16,17.40
2017,08,04,02,17,17.30
2017,08,04,02,18,17.30
2017,08,04,02,19,17.30
2017,08,04,02,20,17.30
2017,08,04,02,21,17.30
2017,08,04,02,22,17.30
2017,08,04,02,23,17.30
2017,08,04,02,24,17.30
2017,08,04,02,25,17.30
2017,08,04,02,26,17.30
2017,08,04,02,27,17.30
2017,08,04,02,28,17.30
2017,08,04,02,29,17.20
2017,08,04,02,30,17.20
2017,08,04,02,31,17.20
2017,08,04,02,32,17.20
2017,08,04,02,33,17.20
2017,08,04,02,34,17.10
2017,08,04,02,35,17.10
2017,08,04,02,36,17.10
2017,08,04,02,37,17.10
2017,08,04,02,38,17.10
2017,08,04,02,39,17.00
2017,08,04,02,40,17.00
2017,08,04,02,41,17.00
2017,08,04,02,42,17.00
2017,08,04,02,43,17.00
2017,08,04,02,44,16.90
2017,08,04,02,45,16.90
2017,08,04,02,46,16.90
2017,08,04,02,47,16.90
2017,08,04,02,48,16.90
2017,08,04,02,49,16.90
2017,08,04,02,50,16.80
2017,08,04,02,51,16.80
2017,08,04,02,52,16.80
2017,08,04,02,53,16.80
2017,08,04,02,54,16.80
2017,08,04,02,55,16.80
2017,08,04,02,56,16.70
2017,08,04,02,57,16.70
2017,08,04,02,58,16.70
2017,08,04,02,59,16.70
2017,08,04,03,00,16.70
2017,08,04,03,01,16.70
2017,08,04,03,02,16.70
2017,08,04,03,03,16.80
2017,08,04,03,04,16.80
2017,08,04,03,05,16.80
2017,08,04,03,06,16.80
2017,08,04,03,07,16.70
2017,08,04,03,08,16.70
2017,08,04,03,09,16.70
2017,08,04,03,10,16.70
2017,08,04,03,11,16.70
2017,08,04,03,12,16.70
2017,08,04,03,13,16.70
2017,08,04,03,14,16.70
2017,08,04,03,15,16.70
2017,08,04,03,16,16.70
2017,08,04,03,17,16.70
2017,08,04,03,18,16.70
2017,08,04,03,19,16.70
2017,08,04,03,20,16.70
2017,08,04,03,21,16.70
2017,08,04,03,22,16.70
2017,08,04,03,23,16.70
2017,08,04,03,24,16.70
2017,08,04,03,25,16.70
2017,08,04,03,26,16.70
2017,08,04,03,27,16.70
2017,08,04,03,28,16.70
2017,08,04,03,29,16.70
2017,08,04,03,30,16.70
2017,08,04,03,31,16.70
2017,08,04,03,32,16.70
2017,08,04,03,33,16.70
2017,08,04,03,34,16.70
2017,08,04,03,35,16.70
2017,08,04,03,36,16.80
2017,08,04,03,37,16.80
2017,08,04,03,38,16.80
2017,08,04,03,39,16.80
2017,08,04,03,40,16.80
2017,08,04,03,41,16.90
2017,08,04,03,42,16.90
2017,08,04,03,43,16.90
2017,08,04,03,44,16.90
2017,08,04,03,45,16.90
2017,08,04,03,46,16.90
2017,08,04,03,47,16.90
2017,08,04,03,48,16.90
2017,08,04,03,49,16.90
2017,08,04,03,50,16.90
2017,08,04,03,51,16.90
2017,08,04,03,52,16.90
2017,08,04,03,53,16.90
2017,08,04,03,54,16.90
2017,08,04,03,55,16.90
2017,08,04,03,56,16.90
2017,08,04,03,57,16.90
2017,08,04,03,58,16.90
2017,08,04,03,59,16.90
2017,08,04,04,00,16.90
2017,08,04,04,01,16.90
2017,08,04,04,02,16.90
2017,08,04,04,03,16.90
2017,08,04,04,04,16.90
2017,08,04,04,05,16.90
2017,08,04,04,06,16.80
2017,08,04,04,07,16.80
2017,08,04,04,08,16.80
2017,08,04,04,09,16.80
2017,08,04,04,10,16.80
2017,08,04,04,11,16.80
2017,08,04,04,12,16.80
2017,08,04,04,13,16.80
2017,08,04,04,14,16.80
2017,08,04,04,15,16.80
2017,08,04,04,16,16.70
2017,08,04,04,17,16.70
2017,08,04,04,18,16.70
2017,08,04,04,19,16.70
2017,08,04,04,20,16.70
2017,08,04,04,21,16.70
2017,08,04,04,22,16.70
2017,08,04,04,23,16.70
2017,08,04,04,24,16.60
2017,08,04,04,25,16.60
2017,08,04,04,26,16.60
2017,08,04,04,27,16.60
2017,08,04,04,28,16.60
2017,08,04,04,29,16.40
2017,08,04,04,30,16.40
2017,08,04,04,31,16.40
2017,08,04,04,32,16.40
2017,08,04,04,33,16.40
2017,08,04,04,34,16.40
2017,08,04,04,35,16.40
2017,08,04,04,36,16.40
2017,08,04,04,37,16.40
2017,08,04,04,38,16.50
2017,08,04,04,39,16.60
2017,08,04,04,40,16.60
2017,08,04,04,41,16.70
2017,08,04,04,42,16.70
2017,08,04,04,43,16.70
2017,08,04,04,44,16.80
2017,08,04,04,45,16.80
2017,08,04,04,46,16.80
2017,08,04,04,47,16.90
2017,08,04,04,48,16.90
2017,08,04,04,49,16.90
2017,08,04,04,50,16.90
2017,08,04,04,51,16.90
2017,08,04,04,52,17.00
2017,08,04,04,53,17.00
2017,08,04,04,54,17.00
2017,08,04,04,55,17.00
2017,08,04,04,56,17.00
2017,08,04,04,57,17.00
2017,08,04,04,58,17.00
2017,08,04,04,59,17.00
2017,08,04,05,00,17.00
2017,08,04,05,01,17.00
2017,08,04,05,02,17.10
2017,08,04,05,03,17.10
2017,08,04,05,04,17.10
2017,08,04,05,05,17.10
2017,08,04,05,06,17.20
2017,08,04,05,07,17.20
2017,08,04,05,08,17.30
2017,08,04,05,09,17.30
2017,08,04,05,10,17.30
2017,08,04,05,11,17.40
2017,08,04,05,12,17.40
2017,08,04,05,13,17.50
2017,08,04,05,14,17.50
2017,08,04,05,15,17.50
2017,08,04,05,16,17.60
2017,08,04,05,17,17.60
2017,08,04,05,18,17.70
2017,08,04,05,19,17.70
2017,08,04,05,20,17.70
2017,08,04,05,21,17.80
2017,08,04,05,22,17.80
2017,08,04,05,23,17.90
2017,08,04,05,24,17.90
2017,08,04,05,25,17.90
2017,08,04,05,26,17.90
2017,08,04,05,27,17.90
2017,08,04,05,28,18.00
2017,08,04,05,29,18.10
2017,08,04,05,30,18.10
2017,08,04,05,31,18.10
2017,08,04,05,32,18.10
2017,08,04,05,33,18.10
2017,08,04,05,34,18.10
2017,08,04,05,35,18.10
2017,08,04,05,36,18.10
2017,08,04,05,37,18.10
2017,08,04,05,38,18.10
2017,08,04,05,39,18.00
2017,08,04,05,40,17.90
2017,08,04,05,41,17.90
2017,08,04,05,42,17.90
2017,08,04,05,43,17.90
2017,08,04,05,44,17.90
2017,08,04,05,45,17.90
2017,08,04,05,46,17.90
2017,08,04,05,47,17.90
2017,08,04,05,48,17.90
2017,08,04,05,49,17.90
2017,08,04,05,50,17.90
2017,08,04,05,51,17.80
2017,08,04,05,52,17.80
2017,08,04,05,53,17.80
2017,08,04,05,54,17.70
2017,08,04,05,55,17.70
2017,08,04,05,56,17.70
2017,08,04,05,57,17.60
2017,08,04,05,58,17.60
2017,08,04,05,59,17.60
2017,08,04,06,00,17.60
2017,08,04,06,01,17.60
2017,08,04,06,02,17.60
2017,08,04,06,03,17.60
2017,08,04,06,04,17.50
2017,08,04,06,05,17.50
2017,08,04,06,06,17.50
2017,08,04,06,07,17.50
2017,08,04,06,08,17.60
2017,08,04,06,09,17.60
2017,08,04,06,10,17.60
2017,08,04,06,11,17.60
2017,08,04,06,12,17.70
2017,08,04,06,13,17.70
2017,08,04,06,14,17.80
2017,08,04,06,15,17.90
2017,08,04,06,16,17.90
2017,08,04,06,17,17.90
2017,08,04,06,18,18.00
2017,08,04,06,19,18.10
2017,08,04,06,20,18.20
2017,08,04,06,21,18.20
2017,08,04,06,22,18.30
2017,08,04,06,23,18.40
2017,08,04,06,24,18.40
2017,08,04,06,25,18.50
2017,08,04,06,26,18.60
2017,08,04,06,27,18.60
2017,08,04,06,28,18.70
2017,08,04,06,29,18.80
2017,08,04,06,30,18.90
2017,08,04,06,31,18.90
2017,08,04,06,32,19.00
2017,08,04,06,33,19.10
2017,08,04,06,34,19.10
2017,08,04,06,35,19.10
2017,08,04,06,36,19.10
2017,08,04,06,37,19.10
2017,08,04,06,38,19.10
2017,08,04,06,39,19.20
2017,08,04,06,40,19.20
2017,08,04,06,41,19.30
2017,08,04,06,42,19.30
2017,08,04,06,43,19.30
2017,08,04,06,44,19.30
2017,08,04,06,45,19.40
2017,08,04,06,46,19.40
2017,08,04,06,47,19.40
2017,08,04,06,48,19.40
2017,08,04,06,49,19.40
2017,08,04,06,50,19.50
2017,08,04,06,51,19.50
2017,08,04,06,52,19.50
2017,08,04,06,53,19.50
2017,08,04,06,54,19.40
2017,08,04,06,55,19.40
2017,08,04,06,56,19.40
2017,08,04,06,57,19.40
2017,08,04,06,58,19.40
2017,08,04,06,59,19.40
2017,08,04,07,00,19.40
2017,08,04,07,01,19.40
2017,08,04,07,02,19.40
2017,08,04,07,03,19.40
2017,08,04,07,04,19.40
2017,08,04,07,05,19.40
2017,08,04,07,06,19.40
2017,08,04,07,07,19.40
2017,08,04,07,08,19.40
2017,08,04,07,09,19.30
2017,08,04,07,10,19.30
2017,08,04,07,11,19.30
2017,08,04,07,12,19.30
2017,08,04,07,13,19.30
2017,08,04,07,14,19.30
2017,08,04,07,15,19.30
2017,08,04,07,16,19.30
2017,08,04,07,17,19.30
2017,08,04,07,18,19.30
2017,08,04,07,19,19.30
2017,08,04,07,20,19.30
2017,08,04,07,21,19.30
2017,08,04,07,22,19.30
2017,08,04,07,23,19.30
2017,08,04,07,24,19.30
2017,08,04,07,25,19.30
2017,08,04,07,26,19.30
2017,08,04,07,27,19.30
2017,08,04,07,28,19.30
2017,08,04,07,29,19.30
2017,08,04,07,30,19.30
2017,08,04,07,31,19.30
2017,08,04,07,32,19.30
2017,08,04,07,33,19.40
2017,08,04,07,34,19.40
2017,08,04,07,35,19.40
2017,08,04,07,36,19.40
2017,08,04,07,37,19.40
2017,08,04,07,38,19.50
2017,08,04,07,39,19.50
2017,08,04,07,40,19.50
2017,08,04,07,41,19.50
2017,08,04,07,42,19.50
2017,08,04,07,43,19.60
2017,08,04,07,44,19.60
2017,08,04,07,45,19.60
2017,08,04,07,46,19.70
2017,08,04,07,47,19.70
2017,08,04,07,48,19.80
2017,08,04,07,49,19.80
2017,08,04,07,50,19.80
2017,08,04,07,51,19.80
2017,08,04,07,52,19.80
2017,08,04,07,53,19.80
2017,08,04,07,54,19.90
2017,08,04,07,55,19.90
2017,08,04,07,56,19.90
2017,08,04,07,57,19.90
2017,08,04,07,58,19.80
2017,08,04,07,59,19.80
2017,08,04,08,00,19.80
2017,08,04,08,01,19.90
2017,08,04,08,02,19.90
2017,08,04,08,03,19.90
2017,08,04,08,04,19.90
2017,08,04,08,05,19.90
2017,08,04,08,06,19.90
2017,08,04,08,07,19.90
2017,08,04,08,08,19.90
2017,08,04,08,09,20.00
2017,08,04,08,10,20.10
2017,08,04,08,11,20.10
2017,08,04,08,12,20.10
2017,08,04,08,13,20.10
2017,08,04,08,14,20.10
2017,08,04,08,15,20.20
2017,08,04,08,16,20.20
2017,08,04,08,17,20.20
2017,08,04,08,18,20.20
2017,08,04,08,19,20.30
2017,08,04,08,20,20.30
2017,08,04,08,21,20.30
2017,08,04,08,22,20.30
2017,08,04,08,23,20.40
2017,08,04,08,24,20.40
2017,08,04,08,25,20.40
2017,08,04,08,26,20.40
2017,08,04,08,27,20.40
2017,08,04,08,28,20.40
2017,08,04,08,29,20.50
2017,08,04,08,30,20.50
2017,08,04,08,31,20.50
2017,08,04,08,32,20.60
2017,08,04,08,33,20.60
2017,08,04,08,34,20.60
2017,08,04,08,35,20.70
2017,08,04,08,36,20.70
2017,08,04,08,37,20.80
2017,08,04,08,38,20.80
2017,08,04,08,39,20.90
2017,08,04,08,40,20.90
2017,08,04,08,41,21.00
2017,08,04,08,42,21.00
2017,08,04,08,43,21.10
2017,08,04,08,44,21.10
2017,08,04,08,45,21.20
2017,08,04,08,46,21.20
2017,08,04,08,47,21.20
2017,08,04,08,48,21.30
2017,08,04,08,49,21.30
2017,08,04,08,50,21.30
2017,08,04,08,51,21.30
2017,08,04,08,52,21.30
2017,08,04,08,53,21.40
2017,08,04,08,54,21.40
2017,08,04,08,55,21.40
2017,08,04,08,56,21.50
2017,08,04,08,57,21.60
2017,08,04,08,58,21.60
2017,08,04,08,59,21.60
2017,08,04,09,00,21.60
2017,08,04,09,01,21.60
2017,08,04,09,02,21.70
2017,08,04,09,03,21.70
2017,08,04,09,04,21.70
2017,08,04,09,05,21.80
2017,08,04,09,06,21.80
2017,08,04,09,07,21.80
2017,08,04,09,08,21.80
2017,08,04,09,09,21.80
2017,08,04,09,10,21.80
2017,08,04,09,11,21.80
2017,08,04,09,12,21.80
2017,08,04,09,13,21.80
2017,08,04,09,14,21.80
2017,08,04,09,15,21.80
2017,08,04,09,16,21.80
2017,08,04,09,17,21.80
2017,08,04,09,18,21.80
2017,08,04,09,19,21.80
2017,08,04,09,20,21.90
2017,08,04,09,21,21.90
2017,08,04,09,22,22.00
2017,08,04,09,23,22.00
2017,08,04,09,24,22.00
2017,08,04,09,25,22.00
2017,08,04,09,26,22.00
2017,08,04,09,27,22.00
2017,08,04,09,28,22.10
2017,08,04,09,29,22.10
2017,08,04,09,30,22.10
2017,08,04,09,31,22.10
2017,08,04,09,32,22.10
2017,08,04,09,33,22.10
2017,08,04,09,34,22.10
2017,08,04,09,35,22.10
2017,08,04,09,36,22.10
2017,08,04,09,37,22.10
2017,08,04,09,38,22.20
2017,08,04,09,39,22.20
2017,08,04,09,40,22.20
2017,08,04,09,41,22.30
2017,08,04,09,42,22.30
2017,08,04,09,43,22.30
2017,08,04,09,44,22.30
2017,08,04,09,45,22.40
2017,08,04,09,46,22.50
2017,08,04,09,47,22.50
2017,08,04,09,48,22.50
2017,08,04,09,49,22.50
2017,08,04,09,50,22.50
2017,08,04,09,51,22.60
2017,08,04,09,52,22.50
2017,08,04,09,53,22.60
2017,08,04,09,54,22.60
2017,08,04,09,55,22.60
2017,08,04,09,56,22.70
2017,08,04,09,57,22.70
2017,08,04,09,58,22.80
2017,08,04,09,59,22.90
2017,08,04,10,00,22.90
2017,08,04,10,01,22.90
2017,08,04,10,02,23.00
2017,08,04,10,03,23.10
2017,08,04,10,04,23.20
2017,08,04,10,05,23.20
2017,08,04,10,06,23.20
2017,08,04,10,07,23.20
2017,08,04,10,08,23.20
2017,08,04,10,09,23.20
2017,08,04,10,10,23.20
2017,08,04,10,11,23.30
2017,08,04,10,12,23.30
2017,08,04,10,13,23.30
2017,08,04,10,14,23.30
2017,08,04,10,15,23.30
2017,08,04,10,16,23.40
2017,08,04,10,17,23.50
2017,08,04,10,18,23.60
2017,08,04,10,19,23.60
2017,08,04,10,20,23.60
2017,08,04,10,21,23.60
2017,08,04,10,22,23.60
2017,08,04,10,23,23.70
2017,08,04,10,24,23.70
2017,08,04,10,25,23.70
2017,08,04,10,26,23.80
2017,08,04,10,27,23.90
2017,08,04,10,28,23.90
2017,08,04,10,29,23.90
2017,08,04,10,30,23.90
2017,08,04,10,31,23.90
2017,08,04,10,32,23.90
2017,08,04,10,33,23.80
2017,08,04,10,34,23.80
2017,08,04,10,35,23.80
2017,08,04,10,36,23.80
2017,08,04,10,37,23.80
2017,08,04,10,38,23.80
2017,08,04,10,39,23.90
2017,08,04,10,40,23.90
2017,08,04,10,41,23.90
2017,08,04,10,42,23.90
2017,08,04,10,43,23.90
2017,08,04,10,44,24.00
2017,08,04,10,45,24.10
2017,08,04,10,46,24.10
2017,08,04,10,47,24.10
2017,08,04,10,48,24.10
2017,08,04,10,49,24.10
2017,08,04,10,50,24.30
2017,08,04,10,51,24.50
2017,08,04,10,52,24.50
2017,08,04,10,53,24.60
2017,08,04,10,54,24.70
2017,08,04,10,55,24.70
2017,08,04,10,56,24.80
2017,08,04,10,57,24.80
2017,08,04,10,58,24.90
2017,08,04,10,59,24.90
2017,08,04,11,00,25.00
2017,08,04,11,01,25.00
2017,08,04,11,02,25.10
2017,08,04,11,03,25.20
2017,08,04,11,04,25.20
2017,08,04,11,05,25.20
2017,08,04,11,06,25.20
2017,08,04,11,07,25.20
2017,08,04,11,08,25.30
2017,08,04,11,09,25.30
2017,08,04,11,10,25.40
2017,08,04,11,11,25.40
2017,08,04,11,12,25.50
2017,08,04,11,13,25.50
2017,08,04,11,14,25.50
2017,08,04,11,15,25.50
2017,08,04,11,16,25.50
2017,08,04,11,17,25.40
2017,08,04,11,18,25.40
2017,08,04,11,19,25.40
2017,08,04,11,20,25.40
2017,08,04,11,21,25.40
2017,08,04,11,22,25.50
2017,08,04,11,23,25.50
2017,08,04,11,24,25.50
2017,08,04,11,25,25.50
2017,08,04,11,26,25.50
2017,08,04,11,27,25.50
2017,08,04,11,28,25.50
2017,08,04,11,29,25.60
2017,08,04,11,30,25.60
2017,08,04,11,31,25.70
2017,08,04,11,32,25.70
2017,08,04,11,33,25.70
2017,08,04,11,34,25.60
2017,08,04,11,35,25.60
2017,08,04,11,36,25.60
2017,08,04,11,37,25.60
2017,08,04,11,38,25.60
2017,08,04,11,39,25.60
2017,08,04,11,40,25.50
2017,08,04,11,41,25.40
2017,08,04,11,42,25.40
2017,08,04,11,43,25.50
2017,08,04,11,44,25.60
2017,08,04,11,45,25.70
2017,08,04,11,46,25.80
2017,08,04,11,47,25.90
2017,08,04,11,48,25.90
2017,08,04,11,49,25.90
2017,08,04,11,50,25.90
2017,08,04,11,51,26.00
2017,08,04,11,52,26.00
2017,08,04,11,53,26.00
2017,08,04,11,54,26.00
2017,08,04,11,55,26.10
2017,08,04,11,56,26.10
2017,08,04,11,57,26.10
2017,08,04,11,58,26.00
2017,08,04,11,59,25.90
2017,08,04,12,00,25.90
2017,08,04,12,01,25.80
2017,08,04,12,02,25.70
2017,08,04,12,03,25.70
2017,08,04,12,04,25.70
2017,08,04,12,05,25.70
2017,08,04,12,06,25.70
2017,08,04,12,07,25.80
2017,08,04,12,08,25.90
2017,08,04,12,09,26.00
2017,08,04,12,10,26.00
2017,08,04,12,11,26.10
2017,08,04,12,12,26.10
2017,08,04,12,13,26.20
2017,08,04,12,14,26.20
2017,08,04,12,15,26.30
2017,08,04,12,16,26.30
2017,08,04,12,17,26.30
2017,08,04,12,18,26.30
2017,08,04,12,19,26.40
2017,08,04,12,20,26.40
2017,08,04,12,21,26.30
2017,08,04,12,22,26.30
2017,08,04,12,23,26.30
2017,08,04,12,24,26.30
2017,08,04,12,25,26.30
2017,08,04,12,26,26.40
2017,08,04,12,27,26.40
2017,08,04,12,28,26.40
2017,08,04,12,29,26.40
2017,08,04,12,30,26.40
2017,08,04,12,31,26.50
2017,08,04,12,32,26.60
2017,08,04,12,33,26.60
2017,08,04,12,34,26.60
2017,08,04,12,35,26.60
2017,08,04,12,36,26.60
2017,08,04,12,37,26.50
2017,08,04,12,38,26.60
2017,08,04,12,39,26.60
2017,08,04,12,40,26.60
2017,08,04,12,41,26.60
2017,08,04,12,42,26.60
2017,08,04,12,43,26.60
2017,08,04,12,44,26.60
2017,08,04,12,45,26.60
2017,08,04,12,46,26.60
2017,08,04,12,47,26.50
2017,08,04,12,48,26.50
2017,08,04,12,49,26.60
2017,08,04,12,50,26.60
2017,08,04,12,51,26.60
2017,08,04,12,52,26.60
2017,08,04,12,53,26.60
2017,08,04,12,54,26.60
2017,08,04,12,55,26.60
2017,08,04,12,56,26.60
2017,08,04,12,57,26.60
2017,08,04,12,58,26.60
2017,08,04,12,59,26.60
2017,08,04,13,00,26.60
2017,08,04,13,01,26.60
2017,08,04,13,02,26.60
2017,08,04,13,03,26.60
2017,08,04,13,04,26.60
2017,08,04,13,05,26.60
2017,08,04,13,06,26.60
2017,08,04,13,07,26.70
2017,08,04,13,08,26.70
2017,08,04,13,09,26.80
2017,08,04,13,10,26.80
2017,08,04,13,11,26.80
2017,08,04,13,12,26.80
2017,08,04,13,13,26.80
2017,08,04,13,14,26.90
2017,08,04,13,15,26.90
2017,08,04,13,16,26.90
2017,08,04,13,17,26.90
2017,08,04,13,18,27.00
2017,08,04,13,19,27.10
2017,08,04,13,20,27.00
2017,08,04,13,21,26.90
2017,08,04,13,22,26.90
2017,08,04,13,23,26.90
2017,08,04,13,24,26.90
2017,08,04,13,25,26.90
2017,08,04,13,26,26.90
2017,08,04,13,27,27.00
2017,08,04,13,28,27.10
2017,08,04,13,29,26.90
2017,08,04,13,30,27.00
2017,08,04,13,31,27.00
2017,08,04,13,32,27.00
2017,08,04,13,33,27.10
2017,08,04,13,34,27.00
2017,08,04,13,35,26.90
2017,08,04,13,36,26.90
2017,08,04,13,37,26.80
2017,08,04,13,38,26.80
2017,08,04,13,39,26.80
2017,08,04,13,40,26.90
2017,08,04,13,41,26.90
2017,08,04,13,42,27.00
2017,08,04,13,43,27.10
2017,08,04,13,44,27.10
2017,08,04,13,45,27.00
2017,08,04,13,46,26.90
2017,08,04,13,47,26.90
2017,08,04,13,48,27.00
2017,08,04,13,49,27.10
2017,08,04,13,50,27.10
2017,08,04,13,51,27.20
2017,08,04,13,52,27.20
2017,08,04,13,53,27.30
2017,08,04,13,54,27.30
2017,08,04,13,55,27.30
2017,08,04,13,56,27.30
2017,08,04,13,57,27.30
2017,08,04,13,58,27.30
2017,08,04,13,59,27.30
2017,08,04,14,00,27.30
2017,08,04,14,01,27.30
2017,08,04,14,02,27.30
2017,08,04,14,03,27.20
2017,08,04,14,04,27.10
2017,08,04,14,05,26.90
2017,08,04,14,06,26.90
2017,08,04,14,07,26.90
2017,08,04,14,08,26.80
2017,08,04,14,09,26.90
2017,08,04,14,10,26.90
2017,08,04,14,11,26.90
2017,08,04,14,12,27.00
2017,08,04,14,13,27.10
2017,08,04,14,14,27.10
2017,08,04,14,15,27.10
2017,08,04,14,16,27.10
2017,08,04,14,17,27.10
2017,08,04,14,18,27.10
2017,08,04,14,19,27.10
2017,08,04,14,20,27.00
2017,08,04,14,21,26.90
2017,08,04,14,22,26.90
2017,08,04,14,23,26.90
2017,08,04,14,24,26.90
2017,08,04,14,25,27.00
2017,08,04,14,26,27.10
2017,08,04,14,27,27.10
2017,08,04,14,28,27.10
2017,08,04,14,29,27.10
2017,08,04,14,30,27.20
2017,08,04,14,31,27.20
2017,08,04,14,32,27.30
2017,08,04,14,33,27.30
2017,08,04,14,34,27.40
2017,08,04,14,35,27.40
2017,08,04,14,36,27.50
2017,08,04,14,37,27.60
2017,08,04,14,38,27.60
2017,08,04,14,39,27.70
2017,08,04,14,40,27.70
2017,08,04,14,41,27.70
2017,08,04,14,42,27.60
2017,08,04,14,43,27.50
2017,08,04,14,44,27.40
2017,08,04,14,45,27.40
2017,08,04,14,46,27.40
2017,08,04,14,47,27.40
2017,08,04,14,48,27.40
2017,08,04,14,49,27.40
2017,08,04,14,50,27.60
2017,08,04,14,51,27.60
2017,08,04,14,52,27.70
2017,08,04,14,53,27.70
2017,08,04,14,54,27.70
2017,08,04,14,55,27.70
2017,08,04,14,56,27.70
2017,08,04,14,57,27.70
2017,08,04,14,58,27.70
2017,08,04,14,59,27.70
2017,08,04,15,00,27.70
2017,08,04,15,01,27.60
2017,08,04,15,02,27.50
2017,08,04,15,03,27.40
2017,08,04,15,04,27.30
2017,08,04,15,05,27.30
2017,08,04,15,06,27.30
2017,08,04,15,07,27.30
2017,08,04,15,08,27.30
2017,08,04,15,09,27.30
2017,08,04,15,10,27.20
2017,08,04,15,11,27.20
2017,08,04,15,12,27.30
2017,08,04,15,13,27.30
2017,08,04,15,14,27.30
2017,08,04,15,15,27.30
2017,08,04,15,16,27.40
2017,08,04,15,17,27.40
2017,08,04,15,18,27.40
2017,08,04,15,19,27.40
2017,08,04,15,20,27.40
2017,08,04,15,21,27.40
2017,08,04,15,22,27.30
2017,08,04,15,23,27.30
2017,08,04,15,24,27.30
2017,08,04,15,25,27.30
2017,08,04,15,26,27.30
2017,08,04,15,27,27.30
2017,08,04,15,28,27.30
2017,08,04,15,29,27.30
2017,08,04,15,30,27.30
2017,08,04,15,31,27.30
2017,08,04,15,32,27.30
2017,08,04,15,33,27.30
2017,08,04,15,34,27.30
2017,08,04,15,35,27.30
2017,08,04,15,36,27.20
2017,08,04,15,37,27.10
2017,08,04,15,38,27.10
2017,08,04,15,39,27.10
2017,08,04,15,40,27.10
2017,08,04,15,41,27.00
2017,08,04,15,42,26.90
2017,08,04,15,43,26.90
2017,08,04,15,44,26.90
2017,08,04,15,45,26.90
2017,08,04,15,46,26.80
2017,08,04,15,47,26.80
2017,08,04,15,48,26.80
2017,08,04,15,49,26.80
2017,08,04,15,50,26.80
2017,08,04,15,51,26.80
2017,08,04,15,52,26.90
2017,08,04,15,53,26.90
2017,08,04,15,54,26.80
2017,08,04,15,55,26.80
2017,08,04,15,56,26.80
2017,08,04,15,57,26.90
2017,08,04,15,58,26.80
2017,08,04,15,59,26.80
2017,08,04,16,00,26.80
2017,08,04,16,01,26.80
2017,08,04,16,02,26.80
2017,08,04,16,03,26.80
2017,08,04,16,04,26.80
2017,08,04,16,05,26.90
2017,08,04,16,06,26.90
2017,08,04,16,07,26.90
2017,08,04,16,08,27.10
2017,08,04,16,09,27.10
2017,08,04,16,10,27.10
2017,08,04,16,11,27.10
2017,08,04,16,12,27.10
2017,08,04,16,13,27.20
2017,08,04,16,14,27.20
2017,08,04,16,15,27.20
2017,08,04,16,16,27.20
2017,08,04,16,17,27.20
2017,08,04,16,18,27.30
2017,08,04,16,19,27.30
2017,08,04,16,20,27.30
2017,08,04,16,21,27.30
2017,08,04,16,22,27.40
2017,08,04,16,23,27.30
2017,08,04,16,24,27.30
2017,08,04,16,25,27.40
2017,08,04,16,26,27.40
2017,08,04,16,27,27.30
2017,08,04,16,28,27.30
2017,08,04,16,29,27.40
2017,08,04,16,30,27.40
2017,08,04,16,31,27.30
2017,08,04,16,32,27.40
2017,08,04,16,33,27.40
2017,08,04,16,34,27.40
2017,08,04,16,35,27.50
2017,08,04,16,36,27.60
2017,08,04,16,37,27.60
2017,08,04,16,38,27.60
2017,08,04,16,39,27.50
2017,08,04,16,40,27.40
2017,08,04,16,41,27.40
2017,08,04,16,42,27.40
2017,08,04,16,43,27.30
2017,08,04,16,44,27.30
2017,08,04,16,45,27.30
2017,08,04,16,46,27.30
2017,08,04,16,47,27.30
2017,08,04,16,48,27.30
2017,08,04,16,49,27.40
2017,08,04,16,50,27.50
2017,08,04,16,51,27.60
2017,08,04,16,52,27.60
2017,08,04,16,53,27.60
2017,08,04,16,54,27.60
2017,08,04,16,55,27.70
2017,08,04,16,56,27.70
2017,08,04,16,57,27.80
2017,08,04,16,58,27.80
2017,08,04,16,59,27.90
2017,08,04,17,00,27.90
2017,08,04,17,01,27.90
2017,08,04,17,02,27.90
2017,08,04,17,03,28.00
2017,08,04,17,04,28.00
2017,08,04,17,05,28.10
2017,08,04,17,06,28.10
2017,08,04,17,07,28.20
2017,08,04,17,08,28.20
2017,08,04,17,09,28.30
2017,08,04,17,10,28.30
2017,08,04,17,11,28.40
2017,08,04,17,12,28.40
2017,08,04,17,13,28.40
2017,08,04,17,14,28.40
2017,08,04,17,15,28.30
2017,08,04,17,16,28.30
2017,08,04,17,17,28.30
2017,08,04,17,18,28.30
2017,08,04,17,19,28.20